EW7868 Weather Reports


Display with metric or nautical units.
time (UTC)temp
F
wind
direction
speed
MPH
gust
MPH
rain 1hr
in
rain 24hr
in
rain mn
in
humidity
%
barometer
mb
20260506235038 54 45 3.0 8.0 0.00 0.00 0.00 45 1012.9
20260506234536 55 333 3.0 8.0 0.00 0.00 0.00 44 1012.8
20260506234033 53 270 0.0 13.0 0.00 0.00 0.00 46 1012.8
20260506233530 54 345 2.0 8.0 0.00 0.00 0.00 44 1012.9
20260506233027 55 50 3.0 12.0 0.00 0.00 0.00 41 1012.7
20260506232523 56 186 4.0 5.0 0.00 0.00 0.00 44 1012.7
20260506232019 56 75 2.0 5.0 0.00 0.00 0.00 44 1012.5
20260506231516 57 355 5.0 8.0 0.00 0.00 0.00 41 1012.6
20260506231014 57 337 0.0 7.0 0.00 0.00 0.00 44 1012.6
20260506230510 56 77 5.0 13.0 0.00 0.00 0.00 43 1012.5
20260506230008 55 26 5.0 7.0 0.00 0.00 0.00 44 1012.7
20260506225504 55 329 3.0 5.0 0.00 0.00 0.00 46 1012.3
20260506225001 55 329 3.0 10.0 0.00 0.00 0.00 43 1012.6
20260506224458 56 7 2.0 6.0 0.00 0.00 0.00 44 1012.4
20260506223954 56 334 3.0 7.0 0.00 0.00 0.00 44 1012.5
20260506223450 57 103 1.0 5.0 0.00 0.00 0.00 44 1012.3
20260506222947 58 26 0.0 7.0 0.00 0.00 0.00 41 1012.5
20260506222443 58 270 3.0 6.0 0.00 0.00 0.00 43 1012.5
20260506221935 58 188 0.0 5.0 0.00 0.00 0.00 43 1012.5
20260506221432 57 26 0.0 8.0 0.00 0.00 0.00 42 1012.4
20260506220930 57 36 9.0 10.0 0.00 0.00 0.00 41 1012.2
20260506220425 57 68 3.0 9.0 0.00 0.00 0.00 42 1012.1
20260506215922 57 157 2.0 7.0 0.00 0.00 0.00 43 1012.2
20260506215418 57 109 2.0 9.0 0.00 0.00 0.00 44 1012.3
20260506214914 57 48 4.0 15.0 0.00 0.00 0.00 42 1012.0
20260506214411 56 225 2.0 6.0 0.00 0.00 0.00 43 1012.1
20260506213909 57 11 2.0 10.0 0.00 0.00 0.00 40 1012.1
20260506213406 59 334 1.0 9.0 0.00 0.00 0.00 41 1012.3
20260506212904 59 210 3.0 11.0 0.00 0.00 0.00 41 1012.4
20260506212359 58 328 3.0 5.0 0.00 0.00 0.00 41 1012.1
20260506211854 58 326 2.0 10.0 0.00 0.00 0.00 40 1012.1
20260506211350 59 303 2.0 9.0 0.00 0.00 0.00 42 1012.1
20260506210848 59 198 7.0 12.0 0.00 0.00 0.00 43 1012.1
20260506210345 58 45 5.0 9.0 0.00 0.00 0.00 41 1011.9
20260506205842 58 21 3.0 9.0 0.00 0.00 0.00 42 1012.1
20260506205338 57 256 0.0 12.0 0.00 0.00 0.00 42 1012.2
20260506204834 58 255 2.0 6.0 0.00 0.00 0.00 43 1012.2
20260506204332 58 327 3.0 7.0 0.00 0.00 0.00 43 1012.3
20260506203830 58 312 4.0 7.0 0.00 0.00 0.00 42 1012.4
20260506203326 59 11 3.0 7.0 0.00 0.00 0.00 43 1012.2
20260506202823 58 29 1.0 7.0 0.00 0.00 0.00 41 1012.2
20260506202320 59 352 2.0 14.0 0.00 0.00 0.00 43 1012.2
20260506201817 59 53 2.0 5.0 0.00 0.00 0.00 44 1012.3
20260506201314 57 75 2.0 7.0 0.00 0.00 0.00 44 1012.3
20260506200811 57 60 0.0 9.0 0.00 0.00 0.00 42 1012.6
20260506200307 59 99 3.0 7.0 0.00 0.00 0.00 43 1012.5
20260506195803 58 310 3.0 5.0 0.00 0.00 0.00 41 1012.5
20260506195301 58 270 5.0 7.0 0.00 0.00 0.00 44 1012.6
20260506194758 58 34 2.0 9.0 0.00 0.00 0.00 42 1012.7
20260506194254 58 50 4.0 10.0 0.00 0.00 0.00 43 1012.7
20260506193752 58 334 1.0 7.0 0.00 0.00 0.00 42 1012.7
20260506193248 58 163 0.0 11.0 0.00 0.00 0.00 43 1012.8
20260506192744 58 23 3.0 7.0 0.00 0.00 0.00 43 1012.7
20260506192242 57 329 3.0 9.0 0.00 0.00 0.00 45 1012.8
20260506191738 57 297 3.0 9.0 0.00 0.00 0.00 45 1012.7
20260506191234 57 3 3.0 9.0 0.00 0.00 0.00 46 1012.8
20260506190732 55 242 4.0 6.0 0.00 0.00 0.00 47 1012.8
20260506190228 55 319 2.0 8.0 0.00 0.00 0.00 48 1012.9
20260506185725 56 103 1.0 6.0 0.00 0.00 0.00 48 1012.9
20260506185222 56 322 3.0 4.0 0.00 0.00 0.00 50 1012.8
20260506184719 55 244 4.0 5.0 0.00 0.00 0.00 48 1012.9
20260506184217 55 332 0.0 4.0 0.00 0.00 0.00 47 1012.8
20260506183713 56 113 0.0 9.0 0.00 0.00 0.00 48 1012.7
20260506183209 57 53 0.0 6.0 0.00 0.00 0.00 47 1012.6
20260506182706 57 233 3.0 6.0 0.00 0.00 0.00 47 1012.6
20260506182203 56 21 6.0 6.0 0.00 0.00 0.00 48 1012.5
20260506181701 56 131 2.0 8.0 0.00 0.00 0.00 49 1012.8
20260506181158 56 208 2.0 8.0 0.00 0.00 0.00 48 1012.6
20260506180655 57 270 3.0 6.0 0.00 0.00 0.00 45 1012.6
20260506180151 57 257 2.0 6.0 0.00 0.00 0.00 48 1012.7
20260506175648 56 303 2.0 11.0 0.00 0.00 0.00 49 1012.9
20260506175144 56 312 2.0 5.0 0.00 0.00 0.00 48 1012.7
20260506174637 56 230 4.0 8.0 0.00 0.00 0.00 47 1012.8
20260506174134 56 217 8.0 12.0 0.00 0.00 0.00 49 1012.9
20260506173631 56 196 4.0 5.0 0.00 0.00 0.00 46 1012.9
20260506173128 56 324 2.0 9.0 0.00 0.00 0.00 45 1013.3
20260506172625 57 26 0.0 5.0 0.00 0.00 0.00 47 1013.1
20260506172121 57 0 3.0 5.0 0.00 0.00 0.00 48 1013.2
20260506171620 58 95 2.0 5.0 0.00 0.00 0.00 45 1013.0
20260506171117 58 127 2.0 8.0 0.00 0.00 0.00 44 1012.8
20260506170615 58 241 0.0 7.0 0.00 0.00 0.00 44 1013.1
20260506170111 56 32 1.0 4.0 0.00 0.00 0.00 46 1013.0
20260506165609 56 47 3.0 7.0 0.00 0.00 0.00 44 1013.2
20260506165105 56 194 1.0 5.0 0.00 0.00 0.00 47 1013.1
20260506164603 55 9 4.0 7.0 0.00 0.00 0.00 44 1012.8
20260506164100 55 0 1.0 4.0 0.00 0.00 0.00 47 1012.8
20260506163555 55 6 3.0 5.0 0.00 0.00 0.00 44 1012.6
20260506163051 55 24 2.0 8.0 0.00 0.00 0.00 48 1012.8
20260506162547 56 237 2.0 4.0 0.00 0.00 0.00 48 1012.8
20260506162039 56 70 2.0 7.0 0.00 0.00 0.00 49 1012.8
20260506161537 56 204 3.0 5.0 0.00 0.00 0.00 47 1012.8
20260506161033 56 279 0.0 6.0 0.00 0.00 0.00 46 1012.5
20260506160531 56 69 1.0 4.0 0.00 0.00 0.00 46 1012.8
20260506160028 57 223 3.0 6.0 0.00 0.00 0.00 45 1012.8
20260506155526 56 251 0.0 3.0 0.00 0.00 0.00 49 1012.7
20260506153658 55 81 0.0 2.0 0.00 0.00 0.00 46 1012.8
20260506153155 55 0 2.0 5.0 0.00 0.00 0.00 48 1012.7
20260506152652 55 180 1.0 4.0 0.00 0.00 0.00 52 1012.8
20260506152149 55 270 1.0 3.0 0.00 0.00 0.00 54 1012.8
20260506151648 55 14 0.0 4.0 0.00 0.00 0.00 55 1012.9
20260506151144 55 117 0.0 3.0 0.00 0.00 0.00 54 1012.8
20260506150641 55 196 6.0 6.0 0.00 0.00 0.00 55 1012.9
20260506150138 55 77 2.0 3.0 0.00 0.00 0.00 53 1012.9
20260506145635 54 98 0.0 2.0 0.00 0.00 0.00 57 1012.7
20260506145132 54 203 0.0 1.0 0.00 0.00 0.00 54 1012.9
20260506144630 53 106 0.0 3.0 0.00 0.00 0.00 54 1012.7
20260506144126 53 74 0.0 4.0 0.00 0.00 0.00 59 1012.7
20260506143624 53 186 0.0 4.0 0.00 0.00 0.00 57 1012.8
20260506143121 53 192 0.0 2.0 0.00 0.00 0.00 56 1013.0
20260506142620 53 270 0.0 2.0 0.00 0.00 0.00 58 1012.9
20260506142118 52 340 0.0 2.0 0.00 0.00 0.00 59 1012.8
20260506141615 52 0 0.0 2.0 0.00 0.00 0.00 62 1012.9
20260506141113 51 106 1.0 3.0 0.00 0.00 0.00 61 1013.0
20260506140610 51 81 0.0 3.0 0.00 0.00 0.00 66 1013.0
20260506140107 51 198 1.0 2.0 0.00 0.00 0.00 65 1012.9
20260506135604 51 83 1.0 4.0 0.00 0.00 0.00 68 1012.9
20260506135100 50 195 3.0 4.0 0.00 0.00 0.00 65 1012.8
20260506134557 51 197 3.0 5.0 0.00 0.00 0.00 66 1012.8
20260506134053 51 195 3.0 3.0 0.00 0.00 0.00 67 1012.6
20260506133550 50 201 0.0 3.0 0.00 0.00 0.00 68 1012.5
20260506133047 50 0 0.0 3.0 0.00 0.00 0.00 68 1012.6
20260506132544 49 253 0.0 2.0 0.00 0.00 0.00 68 1012.5
20260506132041 48 216 2.0 2.0 0.00 0.00 0.00 70 1012.1
20260506131538 49 74 0.0 0.0 0.00 0.00 0.00 70 1012.2
20260506131035 48 270 0.0 0.0 0.00 0.00 0.00 69 1012.1
20260506130532 48 270 0.0 0.0 0.00 0.00 0.00 72 1011.9
20260506130029 48 270 0.0 1.0 0.00 0.00 0.00 69 1011.8
20260506125527 48 294 0.0 2.0 0.00 0.00 0.00 69 1011.9
20260506125025 48 246 0.0 1.0 0.00 0.00 0.00 70 1011.8
20260506124523 47 325 1.0 1.0 0.00 0.00 0.00 71 1012.3
20260506124020 47 306 0.0 1.0 0.00 0.00 0.00 72 1011.9
20260506123518 47 345 0.0 0.0 0.00 0.00 0.00 72 1011.6
20260506123016 46 262 0.0 1.0 0.00 0.00 0.00 72 1011.6
20260506122512 46 90 0.0 0.0 0.00 0.00 0.00 72 1011.7
20260506122011 46 90 0.0 1.0 0.00 0.00 0.00 71 1011.8
20260506121508 46 74 0.0 1.0 0.00 0.00 0.00 72 1011.5
20260506121004 46 82 0.0 0.0 0.00 0.00 0.00 72 1011.4
20260506120502 45 82 0.0 2.0 0.00 0.00 0.00 72 1011.4
20260506115959 45 74 0.0 0.0 0.00 0.00 0.00 77 1011.4
20260506115457 43 106 0.0 0.0 0.00 0.00 0.00 78 1011.3
20260506114955 42 57 0.0 1.0 0.00 0.00 0.00 79 1011.3
20260506114452 42 66 0.0 1.0 0.00 0.00 0.00 80 1011.1
20260506113950 41 77 0.0 0.0 0.00 0.00 0.00 81 1011.0
20260506113448 41 77 0.0 0.0 0.00 0.00 0.00 81 1011.1
20260506112944 41 77 0.0 0.0 0.00 0.00 0.00 81 1011.1
20260506112442 41 74 0.0 0.0 0.00 0.00 0.00 81 1010.8
20260506111939 41 57 1.0 1.0 0.00 0.00 0.00 81 1010.9
20260506111437 40 180 0.0 0.0 0.00 0.00 0.00 82 1010.7
20260506110934 40 180 0.0 1.0 0.00 0.00 0.00 83 1010.5
20260506110432 40 291 0.0 1.0 0.00 0.00 0.00 83 1010.6
20260506105928 39 83 0.0 0.0 0.00 0.00 0.00 83 1010.6
20260506105424 39 66 0.0 0.0 0.00 0.00 0.00 84 1010.6
20260506104922 39 66 0.0 0.0 0.00 0.00 0.00 83 1010.5
20260506104420 39 66 0.0 0.0 0.00 0.00 0.00 83 1010.2
20260506103917 39 66 0.0 0.0 0.00 0.00 0.00 82 1010.3
20260506103415 39 66 0.0 0.0 0.00 0.00 0.00 82 1010.4
20260506102911 39 66 0.0 0.0 0.00 0.00 0.00 81 1010.4
20260506102410 40 106 0.0 0.0 0.00 0.00 0.00 80 1010.4
20260506101907 40 106 0.0 0.0 0.00 0.00 0.00 79 1010.1
20260506101403 41 106 0.0 0.0 0.00 0.00 0.00 78 1010.0
20260506100900 41 106 0.0 0.0 0.00 0.00 0.00 76 1009.9
20260506100358 42 90 0.0 2.0 0.00 0.00 0.00 76 1010.0
20260506095856 41 90 0.0 3.0 0.00 0.00 0.00 77 1010.1
20260506095354 41 29 0.0 1.0 0.00 0.00 0.00 76 1010.1
20260506094850 42 82 0.0 2.0 0.00 0.00 0.00 76 1009.9
20260506094349 42 105 0.0 1.0 0.00 0.00 0.00 74 1009.8
20260506093847 43 51 2.0 3.0 0.00 0.00 0.00 73 1010.1
20260506093344 43 14 0.0 1.0 0.00 0.00 0.00 72 1009.9
20260506092841 43 90 2.0 2.0 0.00 0.00 0.00 72 1010.1
20260506092339 42 82 0.0 1.0 0.00 0.00 0.00 73 1010.1
20260506091836 43 98 0.0 0.0 0.00 0.00 0.00 72 1009.9
20260506091334 42 98 0.0 0.0 0.00 0.00 0.00 71 1010.1
20260506090831 43 98 0.0 1.0 0.00 0.00 0.00 71 1009.8
20260506090328 43 97 1.0 1.0 0.00 0.00 0.00 71 1009.8
20260506085825 43 98 0.0 0.0 0.00 0.00 0.00 71 1009.8
20260506085321 43 78 1.0 2.0 0.00 0.00 0.00 71 1009.7
20260506084818 43 82 0.0 2.0 0.00 0.00 0.00 71 1009.9
20260506084314 43 84 0.0 2.0 0.00 0.00 0.00 71 1009.5
20260506083811 43 90 0.0 1.0 0.00 0.00 0.00 72 1009.5
20260506083309 43 66 1.0 2.0 0.00 0.00 0.00 70 1009.5
20260506082806 44 105 0.0 2.0 0.00 0.00 0.00 71 1009.5
20260506082304 44 96 1.0 2.0 0.00 0.00 0.00 72 1009.5
20260506081759 44 90 1.0 1.0 0.00 0.00 0.00 71 1009.6
20260506081257 44 106 0.0 2.0 0.00 0.00 0.00 70 1009.4
20260506080754 44 82 0.0 2.0 0.00 0.00 0.00 71 1009.5
20260506080250 44 74 0.0 2.0 0.00 0.00 0.00 72 1009.3
20260506073234 46 14 0.0 2.0 0.00 0.00 0.00 69 1009.4
20260506072731 46 84 0.0 2.0 0.00 0.00 0.00 69 1009.1
20260506072229 46 75 0.0 3.0 0.00 0.00 0.00 69 1009.1
20260506071726 46 345 0.0 2.0 0.00 0.00 0.00 70 1009.3
20260506071224 46 55 0.0 3.0 0.00 0.00 0.00 71 1008.8
20260506070721 46 60 0.0 2.0 0.00 0.00 0.00 70 1008.8
20260506070218 46 26 2.0 3.0 0.00 0.00 0.00 71 1008.5
20260506062154 46 7 0.0 1.0 0.00 0.00 0.00 74 1008.9
20260506061651 46 82 0.0 1.0 0.00 0.00 0.00 74 1008.6
20260506061148 46 157 0.0 2.0 0.00 0.00 0.00 74 1008.6
20260506060647 46 74 0.0 0.0 0.00 0.00 0.00 75 1008.9
20260506060143 46 353 1.0 1.0 0.00 0.00 0.00 75 1009.0
20260506051115 48 66 1.0 3.0 0.00 0.00 0.00 72 1008.6
20260506050614 48 7 0.0 1.0 0.00 0.00 0.00 72 1008.7
20260506050111 49 83 0.0 2.0 0.00 0.00 0.00 71 1008.3
20260506045104 49 99 0.0 1.0 0.00 0.04 0.04 70 1008.5
20260506044602 49 331 2.0 2.0 0.00 0.04 0.04 69 1008.2
20260506044058 50 254 0.0 2.0 0.00 0.04 0.04 69 1008.2
20260506043555 50 7 0.0 2.0 0.00 0.04 0.04 67 1008.1
20260506043054 50 15 0.0 0.0 0.00 0.04 0.04 67 1008.7
20260506042553 50 7 0.0 1.0 0.00 0.04 0.04 66 1008.4
20260506042050 50 279 0.0 0.0 0.00 0.04 0.04 66 1008.5
20260506041549 50 12 1.0 2.0 0.00 0.04 0.04 66 1008.7
20260506041045 50 18 0.0 0.0 0.00 0.04 0.04 64 1008.6
20260506040543 50 254 0.0 0.0 0.00 0.04 0.04 63 1008.5
20260506040038 51 337 0.0 1.0 0.00 0.04 0.04 63 1008.8
20260506035536 51 352 0.0 2.0 0.00 0.04 0.04 61 1008.8
20260506035032 50 331 0.0 1.0 0.00 0.04 0.04 62 1008.9
20260506034530 50 346 0.0 2.0 0.00 0.04 0.04 62 1008.6
20260506034026 50 83 0.0 2.0 0.00 0.04 0.04 64 1008.8
20260506033524 50 228 0.0 2.0 0.00 0.04 0.04 64 1008.7
20260506033021 50 90 0.0 1.0 0.00 0.04 0.04 64 1008.4
20260506032518 50 99 0.0 0.0 0.00 0.04 0.04 65 1008.6
20260506032015 50 106 0.0 0.0 0.00 0.04 0.04 65 1008.6
20260506031513 50 106 0.0 2.0 0.00 0.04 0.04 65 1008.5
20260506031009 50 331 0.0 2.0 0.00 0.04 0.04 66 1008.6
20260506030508 50 254 0.0 0.0 0.00 0.04 0.04 66 1008.4
20260506030005 50 15 0.0 0.0 0.00 0.04 0.04 67 1008.5
20260506025501 50 188 0.0 0.0 0.00 0.04 0.04 67 1008.5
20260506024957 50 8 0.0 0.0 0.00 0.04 0.04 66 1008.2
20260506024454 50 8 0.0 0.0 0.00 0.04 0.04 65 1008.2
20260506023950 50 8 0.0 0.0 0.00 0.04 0.04 65 1007.8
20260506023447 51 337 0.0 0.0 0.00 0.04 0.04 63 1008.0
20260506022944 51 337 0.0 0.0 0.00 0.04 0.04 64 1008.0
20260506022442 50 15 0.0 0.0 0.00 0.04 0.04 64 1008.0
20260506021939 51 15 0.0 0.0 0.00 0.04 0.04 64 1008.3
20260506021436 51 15 0.0 0.0 0.00 0.04 0.04 63 1008.1
20260506020933 51 15 0.0 0.0 0.00 0.04 0.04 63 1008.1
20260506020431 51 263 1.0 1.0 0.00 0.04 0.04 62 1007.9
20260506015928 51 352 0.0 2.0 0.00 0.04 0.04 61 1007.7
20260506015426 51 0 0.0 1.0 0.00 0.04 0.04 62 1007.6
20260506014922 51 75 0.0 0.0 0.00 0.04 0.04 63 1007.6
20260506014419 51 262 0.0 1.0 0.00 0.04 0.04 63 1007.7
20260506013916 51 99 0.0 0.0 0.00 0.04 0.04 62 1007.4
20260506013414 51 99 0.0 0.0 0.00 0.04 0.04 61 1007.5
20260506012910 51 276 0.0 0.0 0.00 0.04 0.04 62 1007.3
20260506012407 51 276 0.0 0.0 0.00 0.04 0.04 62 1007.5
20260506011904 51 254 0.0 0.0 0.00 0.04 0.04 62 1007.1
20260506011401 51 254 0.0 0.0 0.00 0.04 0.04 61 1007.2
20260506010858 52 254 0.0 0.0 0.00 0.04 0.04 60 1007.1
20260506010356 52 254 0.0 1.0 0.00 0.04 0.04 60 1007.3
20260506005852 52 98 0.0 2.0 0.00 0.04 0.04 58 1007.0
20260506005350 52 187 0.0 1.0 0.00 0.04 0.04 59 1007.1
20260506004845 52 14 0.0 0.0 0.00 0.04 0.04 59 1007.6
20260506004343 52 257 1.0 1.0 0.00 0.04 0.04 59 1007.0
20260506003839 52 102 0.0 0.0 0.00 0.04 0.04 60 1006.8
20260506003335 53 259 0.0 2.0 0.00 0.04 0.04 58 1006.9
20260506002832 53 0 0.0 3.0 0.00 0.04 0.04 55 1006.8
20260506002329 53 97 0.0 2.0 0.00 0.04 0.04 56 1007.0
20260506001824 53 265 0.0 2.0 0.00 0.04 0.04 55 1007.1
20260506001321 53 339 0.0 3.0 0.00 0.04 0.04 53 1006.9
20260506000818 53 106 0.0 2.0 0.00 0.04 0.04 54 1006.8
20260506000316 53 234 1.0 3.0 0.00 0.04 0.04 52 1006.9
20260505235812 54 345 0.0 2.0 0.00 0.04 0.04 52 1007.0